Regional Weather Roundup
Issued by NWS

Home | Current Version | Previous Version | Text Only | Print | Product List | Glossary On
Versions: 1 2 3 4 5 6 7 8 9 10 11 12 13 14 15 16 17 18 19 20 21 22 23 24 25 26 27 28 29 30 31 32 33 34 35 36 37 38 39 40 41 42 43 44 45 46 47 48 49 50
000
ASUS45 KTFX 301110
RWRMT
MONTANA REGIONAL WEATHER ROUNDUP
NATIONAL WEATHER SERVICE GREAT FALLS MT
500 AM MDT SAT MAY 30 2015

NOTE: "FAIR" INDICATES FEW OR NO CLOUDS BELOW 12000 FEET WITH NO
SIGNIFICANT WEATHER AND/OR OBSTRUCTIONS TO VISIBILITY.

MTZ001>007-043-301200-
WEST OF THE DIVIDE

CITY           SKY/WX    TMP DP  RH WIND       PRES   REMARKS
KALISPELL      CLOUDY    56  49  77 W9        30.01R
MISSOULA       PTCLDY    48  45  89 CALM      30.01S
BUTTE          PTCLDY    47  43  86 CALM      30.12F
MULLAN PASS    CLOUDY    51  43  74 S5        30.07F
DEER LODGE       N/A     48  45  87 CALM      30.09F
EUREKA           N/A     54  52  94 CALM      30.00F
HAMILTON         N/A     50  45  81 SE2       30.00F
LIBBY            N/A     54  54 100 CALM      30.01R
PLAINS           N/A     55  51  86 CALM      30.00R
RONAN            N/A     54  50  86 N9        30.03R
THOMPSON FALLS   N/A     54  52  93 CALM      30.03F
$$

MTZ008-052>055-301200-
SOUTHWEST MONTANA

CITY           SKY/WX    TMP DP  RH WIND       PRES   REMARKS
BOZEMAN        CLOUDY    51  47  86 W5        30.10F
DILLON         PTCLDY    51  45  79 S3        30.11S
W YELLOWSTONE  CLOUDY    36  36 100 SW3       30.22F
THREE FORKS      N/A     53  28  38 CALM      30.08S
$$

MTZ009-010-012-014-046-048-049-054-301200-
EAST SLOPES AND CENTRAL MONTANA

CITY           SKY/WX    TMP DP  RH WIND       PRES   REMARKS
CUT BANK       MOCLDY    42  39  89 E7        30.04F
GREAT FALLS    MOCLDY    51  45  79 S7        30.03S
MALMSTROM AFB  MOCLDY    47  46  97 SE3       30.04F
HELENA         MOCLDY    52  47  83 CALM      30.05F
CONRAD           N/A     40  40 100 CALM      30.05F
$$

MTZ011-013-016-021-045-047-050-051-301200-
NORTH CENTRAL MONTANA

CITY           SKY/WX    TMP DP  RH WIND       PRES   REMARKS
HAVRE          PTCLDY    46  36  68 E15       30.04F
LEWISTOWN      MOCLDY    46  41  82 SE8       30.07F
N BAR RANCH    CLOUDY    48  43  81 VRB5      30.11F
CHINOOK          N/A     46  36  66 E14G23    30.08F
FORT BENTON      N/A     50  39  66 E6        30.05S
$$

MTZ017>020-022>027-061-062-301200-
NORTHEAST MONTANA

CITY           SKY/WX    TMP DP  RH WIND       PRES   REMARKS
GLASGOW        MOCLDY    44  33  65 E15       30.19S
JORDAN           N/A     46  36  68 E6        30.15F
SIDNEY         MOCLDY    39  32  75 CALM      30.29S
WOLF POINT     MOCLDY    40  33  76 E9        30.25S
MALTA            N/A     47  34  60 NE7       30.11S
PLENTYWOOD       N/A     43  32  65 E14G21    30.28F
POPLAR           N/A     43  34  70 E10       30.26S
SCOBEY           N/A     41  29  62 E13       30.22S
$$

MTZ028>42-056>058-301200-
SOUTHCENTRAL AND SOUTHEAST MONTANA

CITY           SKY/WX    TMP DP  RH WIND       PRES   REMARKS
BAKER          FLURRIES  35  33  92 E10       30.27S WCI  27
BILLINGS       MOCLDY    47  44  90 S8        30.11F
LIVINGSTON     PTCLDY    48  46  93 SW6       30.10F
MILES CITY     PTCLDY    47  37  68 SE9       30.18F
BIG TIMBER       N/A     50  46  87 SW6       30.11S
EKALAKA          N/A     39  33  79 SE13      30.19R WCI  31
LAUREL           N/A     46  42  86 CALM      30.08F
ROUNDUP          N/A     45  38  76 CALM      30.01F
$$

REGIONAL REPORTS...DAKOTAS

CITY           SKY/WX    TMP DP  RH WIND       PRES   REMARKS
WILLISTON      PTCLDY    41  33  73 E6        30.32R
MINOT          CLEAR     33  28  81 E6        30.39R WCI  28
DICKINSON      CLEAR     32  29  88 E7        30.30R WCI  26
BEACH          FAIR      36  36 100 SE9       30.28S WCI  29
CROSBY         FAIR      37  36  93 E7        30.36R
WATFORD CITY   FAIR      36  32  87 SE10      30.30S WCI  28
BISMARCK       CLEAR     32  30  92 SE5       30.39R
GRAND FORKS    PTCLDY    30  25  81 N7        30.39R WCI  23
FARGO          CLEAR     35  28  75 N13       30.36R WCI  26
BUFFALO SD       N/A     36  33  89 SE7       30.22S WCI  30
RAPID CITY     CLEAR     36  34  92 S3        30.30S
$$

REGIONAL REPORTS...WYOMING/IDAHO/WASHINGTON

CITY           SKY/WX    TMP DP  RH WIND       PRES   REMARKS
GILLETTE       PTCLDY    42  40  92 SE12      30.20S
SHERIDAN       CLEAR     38  36  92 CALM      30.13F
BUFFALO WY     CLEAR     44  42  93 CALM      30.16S
CODY           PTCLDY    45  39  81 N3        30.15F
YELLOWSTONE LA   N/A     32  31  96 CALM      30.30S
IDAHO FALLS    CLEAR     44  42  93 N3        30.13S
SALMON           N/A     48  45  87 CALM      30.07S
BOISE          CLOUDY    69  43  38 SE8       29.91F
SPOKANE        CLOUDY    61  49  64 E3        29.93F
$$

REGIONAL REPORTS...ALBERTA

CITY           SKY/WX    TMP DP  RH WIND       PRES   REMARKS
EDMONTON       CLOUDY    50  32  50 E8        30.11F
CALGARY        MOCLDY    43  36  75 VRB2      30.05F
LETHBRIDGE     MOCLDY    45  43  93 SE10      30.04F
MEDICINE HAT   CLOUDY    52  34  50 NE3       30.07F
$$

REGIONAL REPORTS...SASKATCHEWAN

CITY           SKY/WX    TMP DP  RH WIND       PRES   REMARKS
SWIFT CURRENT  CLOUDY    43  25  49 E15       30.20S
REGINA         MOCLDY    37  30  75 SE16      30.35R WCI  28
SASKATOON      MOCLDY    41  27  56 SE12      30.33R
$$


USA.gov is the U.S. government's official web portal to all federal, state and local government web resources and services.